Regional Weather Roundup
Issued by NWS

Home | Current Version | Previous Version | Graphics & Text | Print | Product List | Glossary On
Versions: 1 2 3 4 5 6 7 8 9 10 11 12 13 14 15 16 17 18 19 20 21 22 23 24 25 26 27 28 29 30 31 32 33 34 35 36 37 38 39 40 41 42 43 44 45 46 47 48 49 50
000
ASUS45 KSLC 161310
RWRUT

UTAH REGIONAL WEATHER ROUNDUP
NATIONAL WEATHER SERVICE SALT LAKE CITY UT
700 AM MDT WED AUG 16 2017

UTZ001>011-023>025-161400-

NORTHERN UTAH

CITY           SKY/WX    TMP DP  RH WIND       PRES   REMARKS
BRIGHAM CITY   PTCLDY    55  44  67 NW3       30.06R
DUGWAY         PTCLDY    50  31  47 S6        30.04
HILL AFB       CLEAR     56  33  43 E20       30.07R
LOGAN          CLEAR     50  46  86 N5        30.08R
OGDEN          CLEAR     58  35  42 S9        30.05R
SALT LAKE CITY PTCLDY    61  39  44 SE9       30.04R
TOOELE VALLEY  PTCLDY    55  36  47 SW8       30.06R
WENDOVER       CLOUDY    64  37  36 CALM      30.04R
HEBER CITY     CLEAR     43  37  81 CALM      30.15R
WEST JORDAN    CLEAR     56  42  60 CALM      30.08R

$$

UTZ011>015-024>027-161400-

CENTRAL/NORTHEAST UTAH

CITY           SKY/WX    TMP DP  RH WIND       PRES   REMARKS
PROVO AIRPORT  CLEAR     55  45  68 CALM      30.09R
MOAB/CANYONLAN CLEAR     59  42  53 CALM      30.05R
DELTA          PTCLDY    52  43  71 CALM      30.08R
PRICE          CLEAR     49  44  83 N3        30.13R
RICHFIELD      CLEAR     48  43  81 CALM      30.15R
ROOSEVELT      CLEAR     46  45  93 CALM      30.18R
VERNAL         CLEAR     48  45  89 W5        30.15R

$$

UTZ013>016-019>022-027-161400-

SOUTHERN UTAH

CITY           SKY/WX    TMP DP  RH WIND       PRES   REMARKS
BRYCE CANYON   CLEAR     41  34  76 W8        30.26R
CEDAR CITY     CLEAR     51  38  60 SW3       30.11R
MILFORD        CLEAR     49  39  68 S6        30.08R
ST GEORGE      SUNNY     65  37  35 S5        29.98R
HANKSVILLE     CLEAR     55  32  41 CALM      30.08R
KANAB          CLEAR     46  32  57 NE5       30.14R
BLANDING       CLEAR     52  34  51 NE7       30.22R

$$

REGIONAL REPORTS     COLORADO/ARIZONA

CITY           SKY/WX    TMP DP  RH WIND       PRES   REMARKS
CRAIG, CO      CLEAR     41  40  96 SW5       30.19R
GRAND JUNCTION CLEAR     56  44  64 CALM      30.09R
RIFLE, CO      CLOUDY    54  43  66 SE6       30.15R
MONTROSE, CO   CLOUDY    54  38  54 S7        30.16R
CORTEZ, CO     CLEAR     43  36  76 NE7       30.17R
COLORADO CITY    N/A     50  43  76 SE5       30.11R
PAGE, AZ       CLEAR     66  30  26 W6        30.04R
GRAND CANYON   CLEAR     37  29  72 CALM      30.21R
KINGMAN, AZ    CLEAR     68  37  32 SE12      29.98R
FLAGSTAFF, AZ  PTCLDY    40  35  83 CALM      30.24R

$$

REGIONAL REPORTS    NEVADA/IDAHO/WYOMING

CITY           SKY/WX    TMP DP  RH WIND       PRES   REMARKS
LAS VEGAS, NV  CLEAR     77  40  26 S3        29.87R
ELY, NY        PTCLDY    50  32  50 SE10      30.14R
ELKO, NV       CLOUDY    57  34  41 CALM      30.07R
POCATELLO, ID  CLEAR     43  38  82 W3        30.07R
BURLEY, ID     CLEAR     48  44  86 N3        30.03R
FORT BRIDGER,    N/A     44  37  77 S9        30.25R
EVANSTON, WY   CLEAR     45  31  58 S7        30.22R
ROCK SPRINGS,  CLEAR     48  43  82 CALM      30.21R
KEMMERER, WY     N/A     41  37  87 N10       30.23R

$$



USA.gov is the U.S. government's official web portal to all federal, state and local government web resources and services.